Regional Weather Roundup
Issued by NWS

Home | Current Version | Previous Version | Text Only | Print | Product List | Glossary On
Versions: 1 2 3 4 5 6 7 8 9 10 11 12 13 14 15 16 17 18 19 20 21 22 23 24 25 26 27 28 29 30 31 32 33 34 35 36 37 38 39 40 41 42 43 44 45 46 47 48 49 50
000
ASHW40 PHFO 231730
RWRHI

WEATHER ROUNDUP FOR HAWAII
NATIONAL WEATHER SERVICE HONOLULU HI
700 AM HST TUE SEP 23 2014

THIS IS AN AUTOMATED REPORT THAT HAS NOT BEEN QUALITY CONTROLLED.

NOTE..."FAIR" INDICATES FEW OR NO CLOUDS BELOW 12,000 FEET WITH NO
SIGNIFICANT WEATHER AND/OR OBSTRUCTIONS TO VISIBILITY.

* - THESE SITES REPORT LIMITED FIELDS

HIZ001>004-231800-
KAUAI-NIIHAU-

CITY           SKY/WX    TMP DP  RH WIND       PRES   REMARKS
LIHUE APT      PTCLDY    80  71  74 NE13      30.05S
PORT ALLEN*      N/A     79 N/A N/A E8          N/A
POIPU*           N/A     81 N/A N/A NE9G17      N/A
PRINCEVILLE*   NOT AVBL
KOKOLE POINT*  NOT AVBL
MOLOAA DAIRY*  NOT AVBL
WAIMEA HTS*    NOT AVBL
PUU OPAE*      NOT AVBL
PUU LUA*       NOT AVBL
MAKAHA RIDGE*  NOT AVBL
$$

HIZ005>011-231800-
OAHU-

CITY           SKY/WX    TMP DP  RH WIND       PRES   REMARKS
HONOLULU       PTCLDY    80  70  71 NE5       30.01S
KALAELOA       PTCLDY    78  70  76 CALM      30.03S
KANEOHE MCB    PTCLDY    73  72  95 E7        30.04R
WHEELER FIELD  CLOUDY    74  70  88 W5        30.05S
BELLOWS*         N/A    N/A N/A N/A NE16        N/A
KAHUKU*          N/A    N/A N/A N/A NE8G14      N/A
WHEELER*       NOT AVBL
WAIANAE HARBOR NOT AVBL
DILLINGHAM*      N/A     75  70  83 SE2         N/A
KAHUKU TRN*      N/A     77  70  78 E12G22      N/A
KAWAILOA*      NOT AVBL
KII*             N/A     81  72  74 E16         N/A
MAKUA RANGE*     N/A     79  68  69 NE5G10      N/A
OAHU FOREST NW NOT AVBL
SCHOFIELD BRK*   N/A     73  68  83 MISG        N/A
SCHOFIELD S*   NOT AVBL
WAIANAE VLY*   NOT AVBL
KUAOKALA*      NOT AVBL
HONOULIUULI*   NOT AVBL
MOKUOLOE IS*     N/A    N/A N/A N/A MISG        N/A
PALEHUA*       NOT AVBL
WAIAWA PHB*    NOT AVBL
$$

HIZ012>013-231800-
MOLOKAI-

CITY           SKY/WX    TMP DP  RH WIND       PRES   REMARKS
MOLOKAI AIRPT  PTCLDY    77  72  84 NE7       30.04R
KALAUPAPA      NOT AVBL
MAKAPULAPAI*   NOT AVBL
MOLOKAI 1*     NOT AVBL
PUU ALII*        N/A     60  57  91 E3G14       N/A
$$

HIZ016-231800-
KAHOOLAWE-

CITY           SKY/WX    TMP DP  RH WIND       PRES   REMARKS
KAHOOLAWE*     NOT AVBL
HAKIOAWA*      NOT AVBL
HONOKANAIA*      N/A     79  68  69 NE12G23   30.02S
KANELOA*         N/A     75  70  83 E18G35    29.24R
KEALIALALO*    NOT AVBL
LUA MAKIKA*    NOT AVBL
$$

HIZ014>015-231800-
LANAI-

CITY           SKY/WX    TMP DP  RH WIND       PRES   REMARKS
LANAI CITY     FAIR      72  67  84 E7        30.09R
LANAI 1*       NOT AVBL
$$

HIZ017>028-231800-
MAUI-

CITY           SKY/WX    TMP DP  RH WIND       PRES   REMARKS
KAHULUI        PTCLDY    77  67  71 NE12      30.02S
KAPALUA-W MAUI PTCLDY    77  66  69 E5        30.03R
HANA AIRPORT   PTCLDY    77  70  78 E3        30.08R
HANA*            N/A     75 N/A N/A SE2G8       N/A
HALEAKALA SUMM   N/A     50   9  18 E30         N/A
MAALAEA BAY*   NOT AVBL
HALEAKALA*     NOT AVBL
KAUPO GAP*     NOT AVBL
KULA 1*          N/A    N/A N/A N/A SE3G9       N/A
$$

HIZ023>026-231800-
BIG ISLAND OF HAWAII COAST AND LOWER SLOPES-

CITY           SKY/WX    TMP DP  RH WIND       PRES   REMARKS
KAILUA KONA    MOSUNNY   78  67  68 E5        29.98R
HILO           PTSUNNY   75  70  84 CALM      30.05R
HONOKAA*       NOT AVBL
KAWAIHAE MWT*    N/A     81 N/A N/A E21G33      N/A
KAWAIHAE*        N/A     82 N/A N/A SE18        N/A
SOUTH POINT*     N/A     73 N/A N/A NE17G26     N/A
UPOLU AIRPORT*   N/A    N/A N/A N/A E20G30      N/A
KAMUELA*       SUNNY     68  63  83 NE20      30.11F
HAKALAU*         N/A     54  53  98 SE1         N/A
KALOKO-HONOKO*   N/A     79  68  69 NE5       29.97R
PALI 2*          N/A     68  64  88 N15G25      N/A
KEALAKOMO*       N/A     79  66  65 N13G21      N/A
KAUPULEHU*     NOT AVBL
KAPAPALA*        N/A     71  64  79 NE5G12      N/A
LOWER KAHUKU*  NOT AVBL
PUHE CS*       NOT AVBL
PUHO CS*         N/A     73  64  72 E3          N/A
PTA KEAMUKU*     N/A     61  57  88 S3          N/A
WAIKOLOA*      NOT AVBL
$$

HIZ027>028-231800-
BIG ISLAND OF HAWAII INTERIOR AND SUMMMITS-

CITY           SKY/WX    TMP DP  RH WIND       PRES   REMARKS
BRADSHAW FIELD SUNNY     52  37  57 SE6       30.36R
MK VISITOR CEN NOT AVBL
MAUNA KEA*       N/A     41  -6  13 SE26        N/A
MAUNA LOA*       N/A     46   0  14 MISG        N/A
MAUNA LOA 1*   NOT AVBL
PTA KIPUKA*      N/A     55  50  82 S6          N/A
PTA RANGE 17*    N/A     59  54  82 E12G25      N/A
PTA WEST*        N/A     63  54  72 E10         N/A
NENE CABIN*    NOT AVBL
AHUMOA*        NOT AVBL
PTA PORTABLE*  NOT AVBL
PUU MALI*      NOT AVBL
$$

HIC003-231800-
NORTHWEST ISLANDS-

CITY           SKY/WX    TMP DP  RH WIND       PRES   REMARKS
MIDWAY ISLAND  CLEAR     81  77  89 E10       30.12S
MIDWAY NOS*    NOT AVBL
FRENCH FRIGATE NOT AVBL
$$

PHZ110>124-180-231800-
BUOY REPORTS

STATION/POSITION TIME  TEMP    WIND        PRES    WAVE   SWELL
                       AIR SEA DIR/SP/G            HT/PER HT/DIR
                 (UTC) (F)     (DEG/KT/KT) (MB)    (FT/S) (FT/D)
BUOY 51001       NOT AVBL
BUOY 51101       NOT AVBL
BUOY 51100       1700   80 82   80/  8/ 10 1018.1R
BUOY 51003       1700   81 83   80/ 14/ 17 1015.4S   5/ 6   2
BUOY 51004       1640   80 81   80/ 19/ 21 1015.0R   8/ 8   5/100
BARBERS PT BUOY  NOT AVBL
WAIMEA BAY BUOY  1700      83                N/A     3/ 8
KAILUA BAY BUOY  1700      82                N/A     5/ 5   2/ 80
LANAI BUOY       NOT AVBL
BARBERS PT 2     1700      83                N/A     4/ 8   2/180
PAUWELA MAUI     1700      81                N/A     4/ 7   2/ 60
HILO             1700      81                N/A     5/ 6   2/110
KANEOHE BAY BUOY NOT AVBL
HANALEI KAUAI    NOT AVBL
KAHULUI HARBOR   1700   79 83   50/ 15/ 18 1016.5R
HONOLULU HARBOR  1700   81     100/  2/  7 1016.9R
KILO NALU        NOT AVBL
HILO HARBOR      1700   75     240/  6/ 11 1017.1R
MOKUOLOE         1700   80      90/  8/ 11   N/A
NAWILIWILI       1700      84                N/A
WHOTS BUOY       NOT AVBL
BUOY 51028       NOT AVBL
$$

......................KEY........................................
  SKY/WX - SKY CONDITIONS/PRESENT WEATHER
  TMP    - TEMPERATURE IN FAHRENHEIT
  DWPT   - DEWPOINT IN FAHRENHEIT
  RH     - RELATIVE HUMIDITY IN PERCENT
  WIND   - DIRECTION AND SPEED /MPH FOR ISLANDS...KTS FOR BUOYS/
  PRES   - MEAN SEA LEVEL PRESSURE IN INCHES OF HG
  VSB    - VISIBILITY IN MILES
  HX     - HEAT INDEX
  WCI    - WIND CHILL INDEX
  VRB    - VARIABLE WIND DIRECTION
  N/A    - NOT AVAILABLE



USA.gov is the U.S. government's official web portal to all federal, state and local government web resources and services.